Погода в Колычевском

Россия / Орловская область     52°18′19″N   35°43′00″E
В апреле 2022 года жителям России запретили посещать сайт meteo.paraplan.net по решению Генеральной прокуратуры. Аудитория сайта уменьшилась в 10 раз. Владельцы сайта не видят смысла в поддержке погодного сервера в таких условиях. Сайт будет закрыт в октябре.
темп.,
°C
ветер,
м/с
пор.,
м/с
влажн.,
%
обл.,
%
осадки,
мм/ч
давл.,
гПа
погр.,
м
26 сентября, пн
пн2600:00+8з51282100 0.1 1012441
03:00+8з41178100 0.1 1012402
06:00+7зюз4977100 0.0 1013266
09:00+9зюз3875100 0.0 1013277
12:00+11зюз366499 0.0 1014533
15:00+12юз5768100 0.0 1013452
18:00+9ююз3784100 0.0 1013248
21:00+9ю2594100 0.1 1013236
27 сентября, вт
вт2700:00+9ююв2498100 1.2 1012208
03:00+9в2399100 4.3 1011146
06:00+9в2499100 5.9 1009204
09:00+10в3497100 7.4 1009231
12:00+12вюв4587100 0.0 1009523
15:00+11в4788100 0.1 1008478
18:00+10в5995100 2.6 1007407
21:00+9в5996100 6.5 1006352
28 сентября, ср
ср2800:00+9в5998100 2.4 1004286
03:00+10в4898100 5.0 1002310
06:00+11в51098100 3.4 1000437
09:00+11юв3799100 4.8 999348
12:00+12юз3698100 0.4 1000490
15:00+12з5795100 0.5 1001469
18:00+10з4794100 0.0 1004555
21:00+10з5891100 0.0 1006598
29 сентября, чт
чт2900:00+8з369415 0.0 1008235
03:00+8з259393 0.0 1009188
06:00+8зюз239576 0.0 101064
09:00+11з248623 0.0 1012465
12:00+14з34655 0.0 1013830
15:00+15з4459100 0.0 10141121
18:00+12зсз1273100 0.0 101611
21:00+11вюв2277100 0.0 101711
30 сентября, пт
пт3000:00+10юв3383100 0.0 101835
03:00+10юв3486100 0.0 101870
06:00+8юв369042 0.0 101990
09:00+12ююв477780 0.0 1019234
12:00+14ююв487698 0.1 1020251
15:00+15ю4974100 0.1 1020413
18:00+12ююв3897100 2.9 1020244
21:00+13ююв3796100 3.9 1021232